Date,TemperatureHighF,TemperatureAvgF,TemperatureLowF,DewpointHighF,DewpointAvgF,DewpointLowF,HumidityHigh,HumidityAvg,HumidityLow,PressureMaxIn,PressureMinIn,WindSpeedMaxMPH,WindSpeedAvgMPH,GustSpeedMaxMPH,PrecipitationSumIn
2013-4-1,41,32,24,23,20,17,78,61,42,30.36,30.15,11,4,18,0.00
2013-4-2,48,35,22,26,22,18,90,63,34,30.41,30.35,11,1,16,0.00
2013-4-3,52,39,28,26,24,21,80,56,34,30.47,30.30,6,1,10,0.00
2013-4-4,65,48,31,41,31,22,74,54,34,30.31,30.07,11,2,17,0.00
2013-4-5,61,49,34,39,33,29,83,56,32,30.23,29.86,9,2,16,0.00
2013-4-6,69,59,50,50,44,39,78,59,49,29.86,29.56,13,3,23,0.00
2013-4-7,68,52,35,54,42,33,96,73,45,29.97,29.68,6,1,12,0.00
2013-4-8,74,62,48,59,54,47,97,76,52,29.80,29.64,6,0,14,0.09
2013-4-9,64,53,43,60,52,42,97,94,86,29.95,29.70,10,3,20,0.26
2013-4-10,44,41,40,42,40,39,97,95,93,29.97,29.74,13,2,26,1.03
2013-4-11,42,39,37,41,38,35,98,94,86,29.78,29.64,4,0,12,0.29
2013-4-12,41,37,35,36,33,27,95,83,71,30.01,29.66,14,4,22,0.01
2013-4-13,54,43,31,38,32,26,84,67,50,30.06,29.86,10,2,15,0.00
2013-4-14,68,54,44,56,47,38,95,80,59,29.85,29.44,10,2,31,0.25
2013-4-15,50,42,38,46,36,30,95,78,61,30.11,29.67,10,2,18,0.01
2013-4-16,52,43,32,41,34,29,92,71,54,30.30,30.08,10,2,16,0.14
2013-4-17,48,44,41,48,41,36,98,90,67,30.24,29.58,11,3,25,2.52
2013-4-18,44,39,35,43,38,31,97,94,86,29.78,29.58,17,5,26,0.55
2013-4-19,45,37,31,32,28,25,87,71,48,30.13,29.75,18,6,31,0.00
2013-4-20,50,39,27,30,26,20,89,62,34,30.34,30.14,6,1,14,0.00
2013-4-21,70,55,43,49,39,29,81,57,32,30.30,30.08,10,3,24,0.05
2013-4-22,68,54,38,51,48,37,96,82,49,30.19,29.93,11,2,20,0.40
2013-4-23,43,37,34,36,30,24,93,78,57,30.20,30.07,15,6,24,0.01
2013-4-24,56,43,28,39,30,24,89,62,32,30.23,30.06,13,2,25,0.00
2013-4-25,63,49,33,39,34,29,90,58,34,30.32,30.15,9,1,17,0.00
2013-4-26,67,58,50,53,46,38,84,65,53,30.22,30.11,10,2,23,0.00
2013-4-27,69,56,45,52,48,43,95,74,50,30.25,30.00,6,1,14,0.00
2013-4-28,77,62,45,56,50,43,95,69,43,30.02,29.76,7,1,13,0.00
2013-4-29,82,68,56,63,57,52,88,69,47,29.79,29.53,7,1,15,0.00
2013-4-30,85,75,61,64,56,47,80,54,42,29.85,29.55,11,3,22,0.03